GFSFLT1_850_dewp_159.txt.gz
Dewpoint
-3 -3 -3 -3 -3 -4 -5 -6 -7 -8 -9 -12 -17 -21 -23 -20 -21 -21 -18 -11 -9 -7 -6 -6 -6 -5 -4 -3 -3 -2 -2 -2
-2 -2 -2 -3 -4 -4 -5 -6 -7 -8 -10 -13 -18 -23 -25 -23 -23 -21 -18 -13 -10 -6 -6 -6 -5 -4 -3 -3 -2 -2 -2 -2
-2 -2 -2 -3 -4 -4 -6 -7 -7 -9 -10 -14 -20 -26 -27 -27 -23 -22 -19 -14 -10 -6 -6 -5 -5 -4 -3 -3 -2 -2 -2 -2
-2 -2 -3 -3 -4 -5 -6 -6 -8 -9 -11 -16 -24 -27 -30 -28 -27 -23 -21 -16 -11 -7 -5 -5 -4 -4 -3 -3 -3 -3 -3 -1
-2 -2 -3 -4 -4 -5 -5 -6 -9 -10 -12 -19 -27 -30 -30 -29 -28 -26 -22 -18 -12 -9 -5 -5 -5 -4 -3 -3 -4 -3 -3 -3
-2 -3 -3 -4 -4 -5 -5 -6 -9 -11 -15 -24 -28 -31 -30 -29 -30 -28 -25 -19 -16 -14 -6 -5 -5 -5 -4 -4 -4 -3 -3 -4
-3 -3 -3 -4 -4 -5 -5 -7 -11 -14 -21 -27 -29 -31 -31 -30 -31 -31 -31 -29 -26 -19 -11 -5 -5 -5 -5 -4 -4 -4 -3 -4
-3 -3 -4 -4 -4 -5 -5 -9 -13 -19 -26 -29 -32 -32 -31 -32 -32 -33 -33 -33 -31 -25 -14 -7 -5 -5 -5 -5 -5 -4 -3 -3
-3 -3 -3 -4 -4 -5 -6 -12 -18 -25 -28 -31 -32 -32 -32 -33 -34 -34 -34 -34 -32 -28 -18 -12 -8 -6 -5 -5 -5 -4 -4 -4
-3 -3 -4 -4 -4 -5 -9 -16 -23 -27 -30 -30 -29 -29 -30 -33 -35 -35 -36 -35 -32 -32 -32 -31 -21 -10 -5 -5 -5 -5 -5 -5
-3 -3 -3 -4 -4 -5 -10 -17 -24 -28 -28 -26 -25 -24 -25 -28 -32 -35 -36 -35 -31 -31 -33 -36 -37 -30 -14 -6 -5 -5 -5 -5
-3 -3 -3 -3 -4 -6 -11 -19 -24 -25 -20 -18 -18 -19 -19 -22 -28 -33 -34 -35 -33 -30 -31 -35 -38 -36 -35 -30 -14 -7 -5 -5
-3 -3 -3 -3 -4 -7 -14 -19 -18 -16 -15 -15 -16 -16 -15 -17 -23 -31 -35 -37 -36 -32 -28 -32 -36 -35 -32 -34 -34 -32 -24 -15
-2 -2 -3 -3 -4 -7 -15 -16 -14 -14 -13 -14 -15 -14 -13 -14 -16 -22 -33 -35 -36 -34 -33 -34 -35 -35 -32 -30 -32 -33 -32 -27
-1 -2 -2 -3 -4 -8 -15 -13 -12 -12 -12 -12 -12 -12 -12 -12 -13 -16 -21 -27 -32 -33 -36 -35 -34 -35 -34 -29 -28 -31 -32 -32
-0 -2 -2 -3 -3 -9 -12 -11 -10 -11 -11 -12 -12 -12 -12 -12 -12 -13 -15 -19 -24 -30 -30 -34 -34 -34 -32 -30 -28 -28 -31 -33
-0 -0 -1 -2 -4 -10 -10 -10 -10 -11 -11 -11 -12 -12 -13 -12 -12 -13 -13 -14 -19 -28 -30 -26 -29 -24 -27 -26 -25 -28 -27 -29
-1 -0 -0 -1 -6 -11 -9 -10 -10 -11 -11 -11 -12 -13 -13 -12 -12 -13 -13 -13 -16 -24 -29 -25 -21 -17 -19 -21 -22 -25 -25 -24
-0 -1 -2 -4 -9 -9 -9 -10 -10 -11 -11 -12 -13 -14 -14 -13 -13 -14 -13 -13 -16 -21 -27 -29 -21 -13 -14 -17 -20 -22 -23 -22

GFSFLT1_850_dewp_162.txt.gz
Dewpoint
-3 -3 -3 -3 -4 -4 -5 -6 -7 -7 -9 -11 -15 -19 -23 -24 -26 -25 -23 -21 -19 -15 -11 -9 -8 -7 -5 -4 -3 -3 -2 -2
-2 -2 -2 -3 -3 -4 -5 -6 -7 -8 -10 -12 -16 -21 -25 -26 -27 -26 -25 -23 -20 -16 -11 -7 -6 -6 -4 -3 -3 -2 -2 -1
-1 -2 -2 -3 -3 -4 -5 -6 -7 -9 -10 -12 -17 -24 -27 -28 -27 -26 -24 -22 -20 -18 -11 -6 -6 -5 -4 -3 -3 -2 -2 -2
-2 -2 -2 -3 -4 -4 -6 -6 -8 -9 -10 -13 -19 -24 -28 -29 -28 -27 -25 -22 -20 -21 -13 -7 -6 -5 -5 -4 -3 -3 -2 -2
-2 -2 -3 -3 -4 -5 -5 -6 -8 -9 -10 -13 -17 -23 -30 -30 -30 -29 -27 -26 -25 -24 -19 -11 -7 -5 -5 -4 -4 -3 -3 -3
-2 -2 -3 -4 -4 -5 -5 -6 -8 -9 -10 -13 -19 -28 -31 -30 -31 -31 -32 -32 -30 -28 -23 -15 -9 -5 -5 -4 -4 -3 -3 -4
-2 -3 -3 -4 -4 -5 -5 -6 -8 -9 -11 -15 -24 -31 -31 -31 -32 -34 -35 -35 -35 -33 -26 -19 -12 -6 -5 -5 -4 -4 -3 -4
-2 -3 -3 -4 -4 -5 -5 -6 -8 -10 -12 -19 -30 -32 -32 -32 -34 -35 -37 -38 -37 -36 -34 -29 -18 -10 -6 -5 -5 -4 -4 -4
-3 -3 -2 -2 -4 -5 -5 -7 -8 -10 -17 -28 -30 -30 -30 -31 -34 -36 -37 -37 -35 -35 -36 -36 -29 -19 -11 -7 -5 -5 -5 -5
-3 -3 -1 -3 -4 -4 -5 -7 -10 -16 -24 -27 -26 -26 -27 -29 -32 -36 -37 -36 -33 -33 -36 -37 -36 -36 -30 -18 -12 -7 -5 -6
-3 -3 -3 -4 -4 -4 -6 -9 -13 -19 -24 -22 -22 -23 -24 -25 -30 -35 -36 -36 -33 -31 -33 -36 -36 -35 -36 -36 -36 -27 -16 -11
-3 -3 -4 -4 -4 -4 -7 -10 -15 -20 -20 -19 -20 -20 -21 -21 -27 -35 -36 -37 -35 -33 -32 -33 -36 -35 -34 -35 -36 -35 -32 -30
-3 -3 -3 -3 -4 -5 -7 -12 -17 -18 -16 -17 -18 -18 -18 -18 -22 -29 -34 -36 -36 -34 -33 -33 -35 -34 -32 -32 -33 -35 -35 -33
-2 -3 -3 -3 -3 -5 -7 -11 -15 -14 -15 -15 -17 -17 -16 -16 -18 -20 -26 -30 -33 -33 -34 -34 -35 -34 -32 -28 -27 -30 -34 -34
-1 -2 -3 -3 -3 -4 -6 -12 -13 -13 -13 -14 -14 -14 -14 -14 -16 -18 -19 -22 -27 -30 -31 -32 -33 -33 -31 -28 -27 -27 -31 -33
-1 -1 -2 -2 -3 -4 -9 -12 -12 -11 -12 -13 -13 -13 -13 -13 -14 -16 -16 -17 -23 -29 -28 -29 -31 -31 -27 -27 -27 -27 -27 -32
-2 -1 -1 -2 -3 -4 -7 -10 -10 -10 -11 -12 -12 -13 -13 -13 -13 -15 -15 -16 -21 -28 -30 -28 -27 -24 -23 -25 -25 -27 -28 -29
-4 -3 -1 -2 -3 -3 -6 -10 -10 -10 -11 -12 -12 -13 -13 -13 -14 -14 -14 -15 -19 -26 -30 -27 -22 -20 -23 -22 -23 -25 -26 -27
-3 -1 -1 -1 -1 -3 -9 -9 -10 -10 -11 -12 -12 -13 -13 -14 -14 -14 -14 -15 -19 -25 -30 -28 -23 -18 -16 -20 -21 -22 -23 -25

GFSFLT1_850_dewp_165.txt.gz
Dewpoint
-2 -3 -3 -3 -3 -4 -5 -5 -7 -7 -9 -10 -12 -14 -18 -22 -26 -27 -27 -25 -23 -21 -17 -12 -8 -7 -7 -6 -4 -3 -2 -2
-2 -3 -3 -3 -3 -4 -5 -6 -7 -8 -9 -10 -12 -15 -21 -25 -27 -28 -27 -25 -24 -22 -21 -14 -9 -7 -6 -5 -4 -3 -3 -2
-2 -2 -2 -3 -4 -4 -5 -6 -7 -9 -9 -10 -13 -17 -22 -27 -28 -28 -26 -26 -26 -26 -25 -19 -11 -7 -5 -5 -4 -3 -3 -2
-2 -2 -2 -3 -4 -4 -5 -6 -7 -9 -9 -10 -14 -18 -23 -28 -29 -29 -29 -30 -31 -30 -27 -21 -13 -7 -5 -4 -4 -3 -3 -3
-2 -2 -3 -3 -4 -4 -5 -6 -7 -9 -9 -11 -12 -16 -24 -28 -30 -31 -32 -33 -34 -33 -30 -24 -16 -8 -5 -4 -4 -4 -3 -3
-2 -2 -3 -3 -4 -4 -5 -6 -7 -9 -10 -10 -12 -17 -23 -29 -31 -32 -34 -35 -35 -35 -31 -24 -18 -12 -6 -5 -4 -4 -4 -4
-2 -2 -2 -3 -4 -4 -5 -5 -6 -9 -9 -10 -14 -20 -26 -31 -32 -33 -35 -36 -36 -36 -37 -34 -25 -19 -15 -9 -5 -5 -4 -4
-2 -2 -3 -3 -4 -4 -5 -5 -7 -9 -11 -12 -16 -20 -28 -31 -32 -34 -36 -36 -35 -35 -37 -38 -37 -32 -25 -19 -10 -6 -6 -6
-2 -2 -3 -3 -4 -4 -5 -6 -7 -10 -11 -15 -16 -22 -28 -29 -31 -35 -36 -35 -34 -34 -36 -37 -37 -37 -36 -34 -29 -17 -10 -8
-2 -3 -3 -3 -4 -4 -5 -6 -8 -11 -13 -15 -19 -24 -25 -26 -30 -35 -36 -36 -34 -33 -34 -36 -37 -37 -37 -36 -36 -35 -30 -29
-2 -3 -3 -3 -3 -5 -5 -6 -10 -12 -14 -17 -20 -22 -22 -24 -30 -35 -37 -36 -35 -34 -34 -36 -37 -36 -36 -36 -37 -37 -35 -33
-2 -3 -3 -3 -4 -5 -4 -7 -10 -12 -15 -17 -19 -19 -20 -22 -27 -33 -36 -36 -35 -35 -34 -35 -36 -36 -35 -34 -36 -37 -37 -36
-3 -3 -3 -3 -4 -4 -4 -7 -10 -14 -16 -16 -17 -18 -18 -21 -24 -26 -30 -33 -33 -34 -33 -33 -34 -34 -33 -32 -33 -34 -37 -37
-3 -3 -3 -4 -4 -4 -5 -7 -11 -14 -14 -15 -16 -17 -17 -20 -21 -22 -23 -26 -30 -31 -31 -31 -31 -31 -29 -29 -29 -30 -34 -35
-2 -3 -3 -3 -4 -4 -5 -8 -12 -13 -13 -13 -15 -15 -16 -18 -19 -20 -20 -23 -27 -29 -28 -27 -28 -27 -27 -27 -27 -27 -30 -32
-2 -2 -2 -3 -3 -4 -5 -8 -11 -12 -12 -12 -14 -14 -15 -16 -17 -18 -19 -20 -27 -28 -25 -24 -25 -23 -25 -26 -27 -28 -28 -31
-2 -1 -1 -2 -3 -4 -5 -7 -11 -11 -11 -12 -13 -14 -14 -15 -16 -17 -17 -19 -24 -28 -26 -23 -22 -22 -24 -25 -25 -27 -28 -29
-3 -3 -2 -2 -2 -3 -4 -6 -10 -10 -10 -12 -12 -14 -14 -15 -15 -16 -16 -17 -22 -28 -26 -23 -21 -16 -22 -24 -24 -26 -28 -28
-6 -5 -4 -2 -2 -3 -4 -7 -10 -9 -10 -11 -12 -13 -14 -14 -14 -15 -15 -17 -21 -28 -29 -26 -22 -16 -15 -20 -23 -23 -24 -26

GFSFLT1_850_dewp_171.txt.gz
Dewpoint
1 1 0 -0 1 1 1 0 -6 -7 -8 -10 -9 -8 -9 -9 -10 -11 -13 -17 -22 -25 -26 -28 -29 -18 -14 -14 -8 -4 -1 -1
1 1 0 0 1 1 0 -3 -7 -7 -5 -2 -2 -4 -5 -7 -10 -13 -16 -20 -25 -28 -30 -30 -29 -21 -16 -11 -8 -5 -2 -1
1 1 1 1 1 1 0 -2 -6 -4 -3 -4 -4 -4 -7 -10 -12 -14 -20 -25 -28 -31 -31 -27 -25 -17 -5 -8 -7 -4 -2 -2
1 1 1 1 1 1 0 -1 -4 -6 -7 -7 -7 -8 -8 -7 -8 -9 -19 -28 -30 -32 -31 -29 -15 -8 -4 -5 -4 -3 -3 -3
0 1 1 1 1 1 -0 -1 -3 -8 -8 -6 -5 -7 -7 -8 -10 -12 -13 -26 -28 -32 -28 -25 -21 -9 -7 -5 -4 -4 -4 -4
0 1 1 1 1 1 -0 -2 -4 -8 -8 -6 -7 -7 -8 -9 -10 -11 -13 -13 -24 -31 -32 -28 -25 -12 -12 -7 -5 -4 -5 -5
-0 0 0 1 1 1 -0 -2 -4 -7 -7 -8 -7 -8 -9 -9 -9 -11 -10 -10 -10 -21 -19 -25 -26 -30 -19 -9 -6 -5 -5 -5
-0 0 0 -0 1 1 -0 -2 -5 -6 -8 -8 -8 -9 -11 -12 -12 -11 -11 -10 -10 -11 -21 -25 -27 -30 -24 -12 -8 -7 -7 -7
-0 -0 -0 -0 1 1 -1 -3 -5 -6 -7 -8 -10 -10 -10 -12 -16 -11 -13 -10 -11 -23 -24 -24 -30 -26 -18 -9 -9 -9 -8 -8
-1 -0 -0 -0 0 1 -1 -3 -5 -6 -7 -9 -9 -11 -12 -15 -20 -18 -15 -18 -17 -20 -28 -23 -22 -18 -13 -10 -10 -11 -9 -9
-0 0 -0 -0 0 -0 -1 -3 -5 -6 -8 -9 -9 -10 -13 -17 -15 -19 -19 -18 -21 -20 -25 -26 -23 -21 -21 -11 -12 -17 -10 -10
-0 1 0 -0 -1 -1 -2 -3 -5 -7 -8 -8 -9 -10 -15 -15 -18 -23 -23 -23 -22 -21 -22 -29 -33 -30 -31 -22 -20 -32 -21 -18
0 1 0 -0 -1 -2 -2 -3 -5 -7 -7 -7 -7 -10 -11 -13 -18 -22 -26 -24 -24 -22 -24 -29 -32 -32 -32 -31 -28 -33 -32 -29
1 2 1 0 -1 -2 -3 -3 -5 -8 -8 -9 -7 -10 -9 -18 -24 -23 -26 -25 -22 -24 -24 -27 -27 -26 -30 -31 -30 -28 -32 -29
2 2 1 0 -1 -3 -3 -4 -6 -8 -10 -12 -10 -12 -16 -22 -24 -25 -26 -27 -30 -31 -31 -28 -26 -29 -30 -28 -28 -26 -20 -21
2 2 1 0 -1 -2 -3 -4 -5 -7 -10 -12 -13 -15 -18 -21 -23 -23 -24 -26 -30 -30 -29 -26 -24 -31 -32 -30 -29 -29 -23 -18
1 1 1 0 -1 -2 -3 -4 -5 -5 -7 -8 -12 -14 -17 -19 -21 -21 -22 -25 -29 -29 -27 -23 -22 -29 -33 -32 -29 -27 -21 -13
1 0 -0 -0 -1 -2 -3 -4 -5 -5 -5 -6 -6 -10 -14 -16 -17 -12 -15 -20 -16 -28 -26 -13 -10 -21 -33 -29 -21 -14 -17 -15
0 -0 -1 -1 -1 -2 -4 -5 -5 -5 -5 -6 -6 -7 -8 -8 -9 -9 -10 -10 -10 -9 -9 -9 -9 -21 -34 -21 -13 -11 -11 -11

GFSFLT1_850_dewp_174.txt.gz
Dewpoint
2 2 2 1 1 2 1 -0 -5 -6 -7 -8 -9 -9 -9 -9 -9 -10 -10 -12 -15 -19 -23 -26 -26 -24 -22 -22 -18 -12 -6 -9
2 2 1 0 1 1 1 1 -3 -6 -8 -5 -4 -4 -6 -8 -9 -10 -11 -14 -18 -20 -25 -27 -28 -27 -21 -21 -21 -17 -11 -8
2 2 1 0 1 1 2 1 -4 -3 -2 -2 -2 -4 -6 -8 -8 -8 -11 -13 -18 -22 -26 -29 -29 -24 -21 -23 -21 -19 -10 -4
2 2 1 0 1 1 1 1 -2 -2 -3 -4 -5 -6 -7 -6 -7 -8 -10 -14 -20 -26 -29 -30 -28 -19 -18 -16 -14 -13 -11 -7
1 1 1 1 1 1 1 0 -2 -4 -6 -7 -5 -4 -5 -7 -8 -9 -9 -16 -23 -28 -31 -30 -29 -20 -20 -15 -11 -8 -6 -7
1 1 1 1 2 1 1 -1 -2 -6 -6 -6 -5 -7 -6 -7 -8 -9 -11 -15 -21 -27 -29 -29 -27 -25 -21 -16 -14 -9 -6 -5
1 1 2 2 2 2 0 -1 -2 -6 -6 -6 -6 -6 -7 -7 -8 -9 -10 -14 -16 -21 -28 -28 -26 -28 -25 -20 -15 -10 -9 -7
1 1 2 1 2 2 0 -1 -3 -5 -7 -7 -6 -7 -7 -7 -10 -10 -11 -10 -11 -21 -26 -25 -27 -27 -24 -18 -15 -11 -9 -9
1 1 1 1 2 1 1 -1 -3 -5 -7 -7 -7 -7 -8 -8 -10 -13 -13 -12 -17 -24 -24 -23 -25 -24 -23 -13 -15 -16 -8 -9
1 1 1 1 2 1 1 -2 -3 -5 -6 -6 -7 -8 -8 -8 -14 -16 -17 -18 -20 -20 -22 -23 -22 -25 -22 -11 -18 -20 -10 -11
0 1 1 1 1 1 1 -2 -4 -5 -6 -7 -8 -8 -8 -10 -13 -12 -16 -20 -20 -20 -22 -25 -26 -28 -27 -22 -24 -25 -21 -16
0 1 1 1 1 1 1 -2 -4 -5 -6 -7 -8 -7 -9 -12 -12 -16 -20 -22 -23 -20 -24 -27 -32 -31 -32 -29 -28 -32 -29 -26
-0 1 1 1 1 1 1 -2 -4 -6 -6 -7 -7 -8 -10 -12 -13 -19 -22 -23 -24 -21 -22 -27 -31 -32 -32 -31 -29 -33 -31 -29
1 1 1 1 1 0 0 -2 -4 -6 -6 -7 -7 -8 -9 -10 -14 -18 -20 -22 -23 -21 -20 -25 -28 -29 -30 -31 -28 -28 -29 -26
2 2 1 1 0 -0 -0 -1 -3 -6 -6 -6 -6 -8 -8 -10 -16 -23 -26 -28 -28 -27 -29 -28 -29 -29 -29 -28 -27 -24 -24 -24
2 2 2 1 0 -1 -1 -2 -3 -6 -6 -7 -7 -8 -9 -15 -22 -25 -26 -27 -28 -30 -30 -29 -29 -31 -31 -29 -28 -27 -25 -23
3 3 2 1 0 -0 -1 -2 -4 -5 -7 -8 -9 -10 -12 -15 -21 -24 -25 -26 -28 -30 -28 -26 -27 -30 -34 -33 -27 -25 -24 -20
2 3 2 2 1 -0 -1 -3 -4 -4 -6 -7 -9 -11 -12 -16 -20 -23 -23 -25 -28 -29 -26 -18 -17 -26 -33 -30 -23 -15 -14 -15
2 2 2 1 -0 -1 -0 -2 -4 -4 -5 -5 -7 -9 -12 -16 -19 -18 -18 -19 -19 -21 -13 -8 -9 -19 -33 -25 -14 -11 -11 -11

GFSFLT1_850_dewp_177.txt.gz
Dewpoint
5 3 2 2 2 2 2 -1 -2 -2 -3 -3 -5 -5 -7 -9 -10 -10 -10 -10 -11 -13 -15 -18 -22 -24 -25 -26 -28 -26 -27 -29
4 3 2 2 2 2 2 -2 -2 -0 -2 -5 -6 -7 -8 -9 -9 -9 -9 -9 -11 -14 -17 -21 -25 -25 -26 -28 -29 -29 -29 -31
3 2 2 2 2 2 1 -1 -0 -2 -4 -4 -4 -5 -7 -8 -8 -7 -8 -10 -12 -16 -20 -24 -26 -27 -28 -29 -28 -26 -22 -21
3 2 2 2 1 1 1 -1 -1 -3 -1 -1 -2 -4 -6 -7 -7 -7 -8 -11 -15 -19 -23 -26 -28 -27 -28 -27 -26 -24 -20 -16
2 2 2 1 1 1 1 -0 -1 -1 0 -1 -2 -5 -7 -7 -6 -7 -8 -11 -15 -21 -24 -27 -29 -29 -28 -26 -23 -20 -17 -14
2 2 2 1 1 1 1 0 -1 -1 -2 -2 -4 -4 -6 -6 -7 -7 -8 -11 -16 -19 -25 -29 -30 -31 -30 -27 -23 -19 -17 -13
2 2 1 1 1 1 1 0 -1 -3 -3 -5 -4 -5 -5 -6 -7 -7 -8 -11 -14 -20 -27 -29 -30 -31 -29 -26 -22 -20 -16 -12
2 2 1 1 1 1 1 1 -0 -2 -5 -4 -4 -6 -6 -6 -7 -8 -10 -12 -13 -22 -27 -29 -30 -29 -27 -25 -20 -17 -13 -13
2 1 1 1 1 2 1 -0 -0 -3 -5 -5 -5 -6 -6 -6 -8 -9 -11 -12 -15 -24 -28 -29 -29 -28 -28 -25 -19 -19 -15 -16
2 2 1 1 2 2 1 0 -0 -2 -6 -5 -6 -6 -7 -7 -7 -9 -12 -14 -20 -24 -27 -29 -28 -28 -28 -24 -22 -24 -20 -22
2 2 2 1 2 2 1 1 0 -2 -5 -6 -6 -7 -7 -7 -7 -12 -13 -17 -21 -25 -27 -29 -30 -29 -29 -26 -28 -29 -26 -27
1 1 2 1 2 2 1 1 -0 -2 -5 -6 -7 -8 -8 -7 -8 -10 -13 -19 -24 -26 -26 -29 -31 -30 -31 -29 -30 -31 -29 -29
1 2 1 1 2 2 1 0 -0 -2 -5 -6 -8 -8 -8 -8 -9 -11 -16 -21 -23 -26 -26 -28 -31 -31 -31 -30 -30 -30 -28 -29
2 2 1 1 2 1 1 0 -1 -3 -5 -6 -7 -8 -8 -9 -10 -13 -18 -21 -23 -25 -25 -28 -29 -30 -30 -31 -27 -26 -31 -29
2 1 1 1 1 1 1 0 -2 -2 -5 -6 -7 -7 -8 -8 -10 -13 -17 -20 -23 -24 -27 -28 -29 -29 -29 -28 -26 -24 -24 -26
2 1 1 1 1 1 1 -0 -1 -2 -5 -6 -7 -6 -8 -8 -10 -16 -21 -23 -25 -28 -30 -30 -29 -30 -30 -29 -27 -26 -25 -25
2 1 1 1 1 1 0 -0 -1 -3 -4 -5 -4 -6 -7 -8 -15 -20 -24 -26 -27 -29 -30 -29 -29 -31 -33 -30 -28 -26 -25 -26
2 2 1 1 1 1 0 -0 -2 -3 -3 -4 -5 -6 -7 -10 -18 -22 -24 -25 -27 -29 -29 -26 -27 -30 -33 -28 -22 -19 -21 -19
1 2 2 2 1 1 0 -1 -1 -1 -0 -3 -6 -6 -8 -13 -17 -21 -23 -25 -27 -27 -24 -19 -17 -26 -33 -25 -18 -15 -16 -16